Location: Krakow
(50.0830°N, 19.9170°E)
Time: 04:24:23
(UTC+02:00)

Tiros 1 - Pass Details

Date: 12 February 2023
Orbit: 627 x 662 km, 48.4° (Epoch: 25 March)

Event Time Altitude Azimuth Distance (km) Brightness Sun altitude
Rises 19:38:48 0° 198° (SSW) 2,902 10.6 -27.0°
Enters shadow 19:39:39 - 193° (SSW) 2,629 10.3 -27.1°
Reaches altitude 10° 19:41:56 10° 176° (S) 1,996 - -27.5°
Maximum altitude 19:44:37 16° 140° (SE) 1,663 - -27.9°
Drops below altitude 10° 19:47:19 10° 103° (ESE) 2,001 - -28.3°
Sets 19:50:27 0° 82° (E) 2,913 - -28.8°
